Regional Weather Roundup
Issued by NWS Boston, MA

Current Version | Previous Version | Text Only | Print | Product List | Glossary Off
Versions: 1 2 3 4 5 6 7 8 9 10 11 12 13 14 15 16 17 18 19 20 21 22 23 24 25 26 27 28
000 ASUS41 KBOX 261010 RWRBOX REGIONAL WEATHER ROUNDUP NATIONAL WEATHER SERVICE BOSTON/NORTON MA 600 AM EDT SAT MAY 26 2018 NOTE: "FAIR" INDICATES FEW OR NO CLOUDS BELOW 12,000 FEET WITH NO SIGNIFICANT WEATHER AND/OR OBSTRUCTIONS TO VISIBILITY. MAZALL-261100- EASTERN MASSACHUSETTS CITY SKY/WX TMP DP RH WIND PRES REMARKS BOSTON FAIR 70 59 68 SW14 29.72S BEVERLY FAIR 70 57 63 W6 29.72R LAWRENCE FAIR 68 57 68 SW5 29.74R BEDFORD FAIR 67 57 70 SW8 29.72R BLUE HILL N/A 67 60 78 SW14 29.75R NORWOOD FAIR 70 61 73 CALM 29.74R MARSHFIELD FAIR 68 61 77 SW8G16 29.74R PLYMOUTH FAIR 64 60 87 S6 29.77R TAUNTON FAIR 67 60 78 SW5 29.76R NEW BEDFORD FAIR 61 61 100 SW5 29.76S $$ MAZALL-261100- CAPE COD AND THE ISLANDS CITY SKY/WX TMP DP RH WIND PRES REMARKS FALMOUTH FAIR 61 59 94 SW13 29.79S HYANNIS FAIR 62 59 90 SW13 29.76S CHATHAM FAIR 62 59 90 SW10G20 29.78R PROVINCETOWN FAIR 58 56 93 SW12 29.75R NANTUCKET FAIR 57 57 100 SW18 29.81R MARTHAS VNYRD FAIR 61 58 90 SW10 29.80R $$ MAZALL-261100- CENTRAL AND WESTERN MASSACHUSETTS CITY SKY/WX TMP DP RH WIND PRES REMARKS WORCESTER FAIR 66 58 75 W15 29.77R FITCHBURG FAIR 69 57 65 W7 29.74R ORANGE FAIR 57 57 100 CALM 29.78R SPRINGFIELD FAIR 57 56 96 NE3 29.76S WESTFIELD FAIR 59 58 96 CALM 29.77R NORTH ADAMS FAIR 53 51 93 CALM 29.80R PITTSFIELD FAIR 55 51 86 CALM 29.80R $$ RIZALL-261100- RHODE ISLAND CITY SKY/WX TMP DP RH WIND PRES REMARKS PROVIDENCE FAIR 68 61 78 SW8 29.77S NEWPORT FAIR 64 61 90 SW5 29.77F BLOCK ISLAND FAIR 58 57 97 SW17 29.81S SMITHFIELD FAIR 67 60 78 MISG 29.78R WESTERLY FAIR 65 61 87 SW8 29.80S $$ CTZALL-261100- CONNECTICUT CITY SKY/WX TMP DP RH WIND PRES REMARKS BRADLEY INTL FAIR 64 60 87 S6 29.77S HARTFORD FAIR 66 62 87 CALM 29.78R BRIDGEPORT FAIR 68 62 81 SW10 29.80S DANBURY FAIR 69 64 84 W6 29.82R GROTON FAIR 66 62 87 W12 29.79R NEW HAVEN FAIR 66 62 87 SW9 29.80S CHESTER FAIR 64 63 94 SW8 29.80S MERIDEN FAIR 62 59 90 CALM 29.80R WILLIMANTIC FAIR 59 57 93 CALM 29.79R OXFORD FAIR 67 63 87 W5 29.82S $$ MEZ002-015-021-024-NHZ003-005-008-011-012-014-VTZ005-008-261100- NORTHERN NEW ENGLAND CITY SKY/WX TMP DP RH WIND PRES REMARKS PORTLAND ME MOCLDY 67 57 70 SW5 29.68R BANGOR ME LGT RAIN 65 62 90 CALM 29.62R CONCORD NH FAIR 63 54 72 CALM 29.72R MANCHESTER NH MOCLDY 70 53 54 VRB3 29.71R NASHUA NH FAIR 64 57 78 CALM 29.73R PORTSMOUTH NH MOCLDY 67 52 59 W5 29.69R JAFFREY NH FAIR 63 55 75 S5 29.78R KEENE NH FAIR 56 53 90 CALM 29.77R BURLINGTON VT LGT RAIN 64 61 90 E3 29.71R MT. WASHINGTON FOG 45 45 100 W45G52 N/A VSB 1/16 $$ NYZ052-076-261100- EASTERN NEW YORK CITY SKY/WX TMP DP RH WIND PRES REMARKS ALBANY MOCLDY 63 53 70 CALM 29.77R NEW YORK CITY FAIR 75 64 68 SW13 29.81R $$ ANZALL-261100- MARINE OBSERVATIONS STATION/POSITION TIME TEMP WIND PRES VSBY WAVE AIR SEA DIR/SP/G HT/PER (UTC) (F) (DEG/KT/KT) (MB) (MI) (FT/S) BOSTON BUOY 0950 61 56 210/ 10/ 12 1006.2R 1/ 8 BUZZARDS BAY 0900 58 230/ 18/ 19 1009.2R NANTUCKET SOUND 0950 60 57 240/ 16/ 17 1008.5R 2/ 3 MASS BAY-STELLWA 0904 59 53 1004.7R 2/ 8 ISLE OF SHOALS 1000 72 250/ 16/ 16 1004.9R S OF BLOCK IS 0943 53 N/A 6/ 6 $$ ......................KEY......................... SKY/WX - SKY CONDITION/PRESENT WEATHER TMP - TEMPERATURE IN FAHRENHEIT DWPT - DEWPOINT IN FAHRENHEIT RH - RELATIVE HUMIDITY IN PERCENT WIND - DIRECTION AND SPEED IN MPH PRES - MEAN SEA LEVEL PRESSURE IN INCHES OF HG WCI - WIND CHILL INDEX VSB - VISIBILITY IN MILES HX - HEAT INDEX TC - TEMPERATURE IN CELSIUS VRB - VARIABLE WIND DIRECTION N/A - NOT AVAILABLE

USA.gov is the U.S. government's official web portal to all federal, state and local government web resources and services.